Cosmos 1346 Rocket - Orbit

View from above orbital plane
View from above orbital plane
View from above satellite
View from above satellite

Ground track
Ground track

The orbit data is extracted from the following two-line orbital elements,

1 13121U 82027B   13142.13328897  .00002554  00000-0  18502-3 0  1211
2 13121 081.1703 022.2053 0030176 030.7505 329.5476 15.03278455693117
Epoch (UTC): 22 May 2013 03:11:56
Eccentricity: 0.0030176
inclination: 81.1703°
perigee height: 536 km
apogee height: 578 km
right ascension of ascending node: 22.2053°
argument of perigee: 30.7505°
revolutions per day: 15.03278455
mean anomaly at epoch: 329.5476°
orbit number at epoch: 69311

The dashed part of the orbit path shows where the satellite is in the earth's shadow,  

Developed and maintained by Chris Peat, Heavens-Above GmbH. Please read the updated FAQ before sending e-mail. Imprint. DLR